CZ-2C R/B

Satellite information

Favourite Embed

Satellite Type and Status

ROCKET BODYIN ORBIT

Key statistics

Satellite CZ-2C R/B at a glance.

Uptime

5037

Days in orbit

Revolutions

≈ 14.7

Per day

Orbit

SSO

Sun Synchronous Orbit

Inclination

98.1

Latest

Satellite identification and parameters

Extended collection of information and parameters for CZ-2C R/B.

Object identification

Identified? True

Debris? False

Object name: CZ-2C R/B

International designator: 2011-039B

Object number (NORAD): 37766

Object ID (CCSDS): 37766

Country: PEOPLES REPUBLIC OF CHINA (PRC)

Current information (Y/N): Y

RCS size: LARGE

Orbital parameters

Period: 97.983 minutes

Inclination: 98.1454 deg

SMA: 7040.35 km

Apoapsis: 693.204 km

Periapsis: 631.226 km

RAAN: 26.8657 deg

Eccentricy: 0.0044016

Argument of periapsis: 141.6818 deg

Mean anomaly: 218.7529 deg

Mean motion: 14.69641458 rev/day

Mean motion (dot): 0.0000075 rev/day2

B* drag term: 0.00013286 1/REarth

Two-line elements (TLE)

Creation date: May 12, 2025, 7:41 p.m.

Reference frame: TEME

Reference center: EARTH

Epoch: May 12, 2025, 11 a.m. UTC

TLE line 0: 0 CZ-2C R/B

TLE line 1: 1 37766U 11039B 25132.45870818 .00000750 00000-0 13286-3 0 9992

TLE line 2: 2 37766 98.1454 26.8657 0044016 141.6818 218.7529 14.69641458737920

Live tracking on map

Real-time ground track for satellite CZ-2C R/B.

In-orbit conjunctions

A list of the most updated potential collisions computed for object CZ-2C R/B.

Target Orbit TCA Probability of collision Miss distance Type
CZ-4 DEB SSO 2024-12-19 17:47:58 0.0001777668 71.0 (m) DEBRIS

Associated space launch

CZ-2C R/B was lifted into orbit during the mission ‘Long March 2C | Shijian 10-02’, on board a Long March 2 space rocket.

The launch took place on July 29, 2011, 7:42 a.m. from Launch Area 4 (SLS-2 / 603).

For more information about the launch, click the button.

Launch to space Long March 2C | Shijian 10-02
Long March 2C | Shijian 10-02

Agency: N/A

Status: Launch Successful

Launch date: July 29, 2011, 7:42 a.m. UTC

Rocket: Long March 2

Launch pad: Launch Area 4 (SLS-2 / 603)

Location: Jiuquan Satellite Launch Center, People's Republic of China

...

Latest news about this satellite

There are no fresh news available about this satellite. Check back as we update our databases every day.


Newsletter sign-up

Weekly statistics, charts and insights to help you stay on top of the space industry.